Weather History for Mobile, AL

Change the Weather History Date:

Thursday, November 29, 2012

  Actual Average Record
Temperature  
Mean Temperature 51 °F 56 °F  
Max Temperature 64 °F 67 °F 79 °F (1949)
Min Temperature 37 °F 45 °F 25 °F (1976)
Degree Days  
Heating Degree Days 14 10  
Month to date heating degree days 253 192  
Since 1 July heating degree days 308 247  
Cooling Degree Days 0 1  
Month to date cooling degree days 15 41  
Year to date cooling degree days 2697 2503  
Moisture  
Dew Point 39 °F    
Average Humidity 61    
Maximum Humidity 85    
Minimum Humidity 36    
Precipitation  
Precipitation 0.00 in 0.17 in 3.46 in (1913)
Month to date precipitation 1.43 4.96  
Year to date precipitation 65.62 60.92  
Snow  
Snow 0.00 in 0.00 in 0.00 in (2002)
Month to date snowfall 0.0 0.0  
Since 1 July snowfall 0.0 0.0  
Snow Depth 0.00 in    
Sea Level Pressure  
Sea Level Pressure 30.32 in    
Wind  
Wind Speed 4 mph (ENE)    
Max Wind Speed 12 mph    
Max Gust Speed 14 mph    
Visibility 10 miles    
Events      
T = Trace of Precipitation, MM = Missing Value Source: NWS Daily Summary

Daily Weather History Graph

Daily Weather History Graph

Search for Another Location

Airport:

Trip Planner

Search our weather history database for the weather conditions in past years. The results will help you decide how hot, cold, wet, or windy it might be!

Date:

Astronomy

Nov. 29, 2012 Rise Set
Actual Time 6:31 AM CST 4:51 PM CST
Civil Twilight 6:05 AM CST 5:17 PM CST
Nautical Twilight 5:35 AM CST 5:47 PM CST
Astronomical Twilight 5:06 AM CST 6:16 PM CST
Moon 5:54 PM CST 7:17 AM CST
Length of Visible Light 11h 12m
Length of Day
10h 19m
Full, 99% of the Moon is Illuminated
Nov 29
Full
Dec 6
Last Quarter
Dec 13
New
Dec 19
First Quarter
Dec 28
Full

Hourly Weather History & Observations

Time (CST) Temp. Windchill Dew Point Humidity Pressure Visibility Wind Dir Wind Speed Gust Speed Precip Events Conditions
12:56 AM 42.1 °F 37.7 °F 32.0 °F 67% 30.34 in 10.0 mi NNE 6.9 mph - N/A   Clear
1:56 AM 41.0 °F 36.4 °F 32.0 °F 70% 30.34 in 10.0 mi NNE 6.9 mph - N/A   Clear
2:56 AM 39.9 °F 35.1 °F 32.0 °F 73% 30.34 in 10.0 mi NE 6.9 mph - N/A   Clear
3:56 AM 37.9 °F 34.4 °F 32.0 °F 79% 30.33 in 10.0 mi NE 4.6 mph - N/A   Clear
4:56 AM 39.0 °F - 32.0 °F 76% 30.33 in 10.0 mi Calm Calm - N/A   Clear
5:56 AM 37.9 °F 34.4 °F 32.0 °F 79% 30.34 in 10.0 mi NE 4.6 mph - N/A   Clear
6:56 AM 37.0 °F 34.5 °F 33.1 °F 86% 30.35 in 10.0 mi NE 3.5 mph - N/A   Clear
7:56 AM 45.0 °F 41.8 °F 39.0 °F 80% 30.37 in 10.0 mi ENE 5.8 mph - N/A   Clear
8:56 AM 52.0 °F - 42.1 °F 69% 30.39 in 10.0 mi East 9.2 mph - N/A   Clear
9:56 AM 53.1 °F - 42.1 °F 66% 30.40 in 10.0 mi NE 8.1 mph - N/A   Clear
10:56 AM 57.0 °F - 42.1 °F 57% 30.38 in 10.0 mi NNE 5.8 mph - N/A   Clear
11:56 AM 59.0 °F - 42.1 °F 53% 30.35 in 10.0 mi Variable 5.8 mph - N/A   Clear
12:56 PM 61.0 °F - 37.9 °F 42% 30.32 in 10.0 mi SE 4.6 mph - N/A   Partly Cloudy
1:56 PM 63.0 °F - 36.0 °F 37% 30.30 in 10.0 mi Calm Calm - N/A   Partly Cloudy
2:56 PM 62.1 °F - 41.0 °F 46% 30.28 in 10.0 mi SSE 6.9 mph - N/A   Partly Cloudy
3:56 PM 61.0 °F - 45.0 °F 56% 30.27 in 10.0 mi East 5.8 mph - N/A   Partly Cloudy
4:56 PM 55.0 °F - 45.0 °F 69% 30.27 in 10.0 mi Calm Calm - N/A   Partly Cloudy
5:56 PM 50.0 °F - 43.0 °F 77% 30.29 in 10.0 mi Calm Calm - N/A   Scattered Clouds
6:56 PM 53.1 °F - 46.0 °F 77% 30.30 in 10.0 mi NE 4.6 mph - N/A   Mostly Cloudy
7:56 PM 51.1 °F - 44.1 °F 77% 30.31 in 10.0 mi ENE 4.6 mph - N/A   Mostly Cloudy
8:56 PM 50.0 °F - 44.1 °F 80% 30.31 in 10.0 mi Calm Calm - N/A   Mostly Cloudy
9:56 PM 51.1 °F - 45.0 °F 80% 30.30 in 10.0 mi Calm Calm - N/A   Mostly Cloudy
10:56 PM 48.9 °F - 43.0 °F 80% 30.30 in 10.0 mi Calm Calm - N/A   Clear
11:56 PM 46.9 °F - 42.1 °F 83% 30.30 in 10.0 mi NNE 3.5 mph - N/A   Partly Cloudy